Weather History for Holloman AFB, NM

Change the Weather History Date:

Monday, May 6, 2013

  Actual Average Record
Temperature  
Mean Temperature 70 °F -  
Max Temperature 79 °F 81 °F 95 °F (1997)
Min Temperature 57 °F 51 °F 41 °F (1999)
Cooling Degree Days 4    
Growing Degree Days 20 (Base 50)    
Moisture  
Dew Point 29 °F    
Average Humidity 20    
Maximum Humidity 31    
Minimum Humidity 17    
Precipitation  
Precipitation 0.00 in - - ()
Sea Level Pressure  
Sea Level Pressure 29.88 in    
Wind  
Wind Speed 12 mph (WSW)    
Max Wind Speed 18 mph    
Max Gust Speed 23 mph    
Visibility 10 miles    
Events      
Averages and records for this station are not official NWS values.
T = Trace of Precipitation, MM = Missing Value Source: NWS Daily Summary

Daily Weather History Graph

Daily Weather History Graph

Search for Another Location

Airport:

Trip Planner

Search our weather history database for the weather conditions in past years. The results will help you decide how hot, cold, wet, or windy it might be!

Date:

Astronomy

May. 06, 2013 Rise Set
Actual Time 6:12 AM MDT 7:50 PM MDT
Civil Twilight 5:45 AM MDT 8:16 PM MDT
Nautical Twilight 5:13 AM MDT 8:48 PM MDT
Astronomical Twilight 4:40 AM MDT 9:22 PM MDT
Moon 4:05 AM MDT (5/6) 5:01 PM MDT (5/6)
Length of Visible Light 14h 31m
Length of Day
13h 38m
Waning Crescent, 10% of the Moon is Illuminated
May 6
Waning Crescent
May 9
New
May 17
First Quarter
May 24
Full
May 31
Last Quarter

Hourly Weather History & Observations

Time (MDT) Temp. Dew Point Humidity Pressure Visibility Wind Dir Wind Speed Gust Speed Precip Events Conditions
12:58 AM 65.7 °F 18.7 °F 17% 29.79 in 10.0 mi South 16.1 mph - N/A   Partly Cloudy
2:58 AM 64.9 °F 19.4 °F 17% 29.77 in 10.0 mi South 13.8 mph - N/A   Partly Cloudy
3:58 AM 63.1 °F 20.5 °F 19% 29.80 in 10.0 mi WSW 13.8 mph - N/A   Scattered Clouds
4:58 AM 63.5 °F 22.1 °F 21% 29.77 in 10.0 mi South 11.5 mph - N/A   Scattered Clouds
5:58 AM 61.5 °F 20.3 °F 20% 29.79 in 10.0 mi SW 4.6 mph - N/A   Clear
7:58 AM 63.7 °F 24.4 °F 22% 29.88 in 10.0 mi South 5.8 mph - N/A   Clear
8:58 AM 66.4 °F 25.7 °F 22% 29.89 in 10.0 mi West 2.3 mph - N/A   Clear
9:58 AM 68.4 °F 36.1 °F 31% 29.88 in 10.0 mi West 6.9 mph - N/A   Clear
10:55 AM 71.6 °F 33.8 °F 25% 30.06 in 10.0 mi SW 8.1 mph 21.9 mph N/A   Clear
11:55 AM 73.4 °F 33.8 °F 23% 30.04 in 10.0 mi WNW 11.5 mph 17.3 mph N/A   Partly Cloudy
12:58 PM 74.3 °F 33.4 °F 22% 29.84 in 10.0 mi West 18.4 mph 23.0 mph N/A   Partly Cloudy
1:28 PM 77.0 °F 32.0 °F 19% 30.00 in 10.0 mi West 15.0 mph 21.9 mph N/A   Clear
1:43 PM 77.0 °F 32.0 °F 19% 30.00 in 10.0 mi SW 15.0 mph 21.9 mph N/A   Partly Cloudy
1:52 PM 78.8 °F 32.0 °F 18% 29.99 in 10.0 mi West 15.0 mph 21.9 mph N/A   Partly Cloudy
1:53 PM 78.8 °F 32.0 °F 18% 29.99 in 10.0 mi West 15.0 mph 21.9 mph N/A   Partly Cloudy
1:57 PM 78.8 °F 32.0 °F 18% 30.00 in 10.0 mi WSW 15.0 mph 21.9 mph N/A   Partly Cloudy
1:58 PM 78.3 °F 32.2 °F 19% 29.82 in 10.0 mi SW 16.1 mph 23.0 mph N/A   Partly Cloudy
2:00 PM 77.0 °F 32.0 °F 19% 29.99 in 10.0 mi SW 15.0 mph 23.0 mph N/A   Partly Cloudy
2:06 PM 78.8 °F 32.0 °F 18% 29.99 in 10.0 mi West 17.3 mph 23.0 mph N/A   Partly Cloudy
2:55 PM 78.4 °F 31.8 °F 18% 29.76 in 10.0 mi WNW 10.4 mph 19.6 mph N/A   Clear
3:39 PM 78.8 °F 32.0 °F 18% 29.97 in 10.0 mi SW 13.8 mph 21.9 mph N/A   Clear
3:58 PM 77.2 °F 30.9 °F 18% 29.78 in 10.0 mi West 11.5 mph 16.1 mph N/A   Partly Cloudy
4:58 PM 78.1 °F 30.4 °F 17% 29.77 in 10.0 mi WSW 12.7 mph 17.3 mph N/A   Clear
5:58 PM 78.1 °F 29.5 °F 17% 29.77 in 10.0 mi SW 11.5 mph - N/A   Clear
6:58 PM 77.2 °F 29.7 °F 18% 29.77 in 10.0 mi WSW 11.5 mph - N/A   Clear
7:58 PM 73.2 °F 29.1 °F 20% 29.79 in 10.0 mi WSW 6.9 mph - N/A   Clear
8:58 PM 67.6 °F 27.9 °F 23% 29.81 in 10.0 mi SW 10.4 mph - N/A   Clear
9:58 PM 65.1 °F 27.9 °F 25% 29.83 in 10.0 mi SW 9.2 mph - N/A   Clear
10:58 PM 64.2 °F 27.9 °F 25% 30.00 in 10.0 mi Calm Calm - N/A   Clear
11:58 PM 57.7 °F 24.3 °F 28% 29.84 in 10.0 mi Calm Calm - N/A   Clear